Location: *
(33.8649°S, 62.1526°E)
Time: 18:06:46
(UTC+00:00)

Cosmos 44 Rocket - Pass Details

Date: 09 December 2021
Orbit: 648 x 741 km, 65.1° (Epoch: 23 January)

Event Time Altitude Azimuth Distance (km) Brightness Sun altitude
Rises 17:38:41 0° 292° (WNW) 2,965 6.7 -25.9°
Reaches altitude 10° 17:41:40 10° 272° (W) 2,065 6.1 -26.2°
Maximum altitude 17:44:47 18° 230° (SW) 1,634 6.0 -26.6°
Drops below altitude 10° 17:47:58 10° 188° (S) 2,097 6.6 -26.9°
Sets 17:51:02 0° 168° (SSE) 3,031 7.3 -27.2°
